Location: ?astrovice
(49.6513°N, 14.9287°E)
Time: 09:16:43
(UTC+00:00)

STARLINK-1191 - Pass Details

Date: 09 April 2020
Orbit: 375 x 384 km, 53.0° (Epoch: 26 May)

Event Time Altitude Azimuth Distance (km) Brightness Sun altitude
Rises 18:20:35 0° 292° (WNW) 2,271 9.6 -6.4°
Reaches altitude 10° 18:22:38 10° 292° (WNW) 1,415 7.6 -6.7°
Maximum altitude 18:25:48 87° 210° (SSW) 392 2.9 -7.2°
Enters shadow 18:28:54 10° 115° (ESE) 1,386 5.0 -7.6°
